Overview Statistics Trail Chart Weather Telemetry Raw packets
 

This is the latest recevied weather packets stored in our database for station/object N1SU-13. If no packets are shown the sender has not sent any weather packets the latest 10 day(s).

<< 26 27 28 29 30 31 32 >>
Time Temp. Humidity Pressure Rain* Wind** Luminosity Snow
1788292100 17.78° C 73% 1008.9 hPa - - - -
1788291516 17.78° C 72% 1008.9 hPa - - - -
1788290917 17.78° C 73% 1008.9 hPa - - - -
1788290272 17.22° C 73% 1009 hPa - - - -
1788289614 17.22° C 73% 1008.9 hPa - - - -
1788289008 17.22° C 74% 1009.1 hPa - - - -
1788288447 16.67° C 75% 1009.2 hPa - - - -
1788287882 16.67° C 76% 1009.1 hPa - - - -
1788287278 16.67° C 76% 1009.1 hPa - - - -
1788286621 16.67° C 77% 1009 hPa - - - -
1788285946 16.11° C 78% 1009 hPa - - - -
1788285356 15.56° C 79% 1009 hPa - - - -
1788284765 15° C 81% 1008.9 hPa - - - -
1788284076 15.56° C 80% 1008.8 hPa - - - -
1788283418 15° C 80% 1008.6 hPa - - - -
1788282746 15° C 81% 1008.7 hPa - - - -
1788282112 15° C 81% 1008.7 hPa - - - -
1788281721 14.44° C 82% 1008.8 hPa - - - -
1788281414 14.44° C 82% 1008.7 hPa - - - -
1788280979 13.89° C 83% 1008.8 hPa - - - -
1788280751 13.89° C 84% 1008.9 hPa - - - -
1788280082 13.89° C 85% 1008.9 hPa - - - -
1788279481 13.89° C 86% 1009 hPa - - - -
1788278869 13.33° C 86% 1009 hPa - - - -
1788278177 13.33° C 87% 1009 hPa - - - -

* Rain since midnight (hover to see other rain measurements)
** Current wind speed in m/s (hover to see current wind gust speed)